Tracking 22836 objects as of 18-Apr-2021
HD Live streaming from Space Station
objects crossing your sky now

TRACE

Track TRACE now!
10-day predictions
TRACE is classified as:


NORAD ID: 25280
Int'l Code: 1998-020A
Perigee: 516.6 km
Apogee: 546.3 km
Inclination: 97.5 °
Period: 95.1 minutes
Semi major axis: 6902 km
RCS: 1.591 m2 (large)
Launch date: April 2, 1998
Source: United States (US)
Launch site: Pegasus launched from Western Range Air Space (WRAS)

Coordinates with SOHO; image the solar corona and transition region at high angular and temporal resolution.
aabbcc
Your satellite tracking list
Your tracking list is empty




NASA's NSSDC Master Catalog

Two Line Element Set (TLE):
1 25280U 98020A   21107.80837216  .00000729  00000-0  43688-4 0  9993
2 25280  97.4678 297.9385 0021552 232.4922 127.4350 15.13907071261917
Source of the keplerian elements: AFSPC